Regional Weather Roundup
Issued by NWS Jackson, KY

Home | Current Version | Previous Version | Graphics & Text | Print | Product List | Glossary On
Versions: 1 2 3 4 5 6 7 8 9 10 11 12 13 14 15 16 17 18 19 20 21 22 23 24 25 26 27
000
ASUS43 KJKL 291010
RWRJKL

EAST KENTUCKY HOURLY WEATHER ROUNDUP
NATIONAL WEATHER SERVICE JACKSON KY
600 AM EDT FRI JUL 29 2016

NOTE: "FAIR" INDICATES FEW OR NO CLOUDS BELOW 12,000 FEET WITH
NO SIGNIFICANT WEATHER AND/OR OBSTRUCTIONS TO VISIBILITY.

* THESE REPORTS ARE NOT UNDER NWS QUALITY CONTROL AND MAY NOT
  REPORT WEATHER SUCH AS PRECIPITATION AND FOG.

KYZ079-080-083-085-087-088-110-112-115-119-120-291100
...EASTERN KENTUCKY...

CITY           SKY/WX    TMP DP  RH WIND       PRES   REMARKS
JACKSON        FOG       69  68  96 CALM      29.99S VSB 3/4
LONDON         CLOUDY    70  67  90 S5        29.99S
SOMERSET*      CLOUDY    68  68 100 S3        29.98F
MONTICELLO*    CLOUDY   N/A N/A N/A NW9       29.99S
WILLIAMSBURG*  CLOUDY    66  66 100 CALM      30.00S VSB<1/4
MIDDLESBORO*   FOG       67  67 100 CALM      30.02R VSB 1/4
HARLAN APT*      N/A     68  66  94 CALM      30.03R
PIKE CO APT*   FOG       68  68 100 CALM      30.00R VSB 1
BIG SANDY APT* CLOUDY    70  70 100 SW3       29.99R
MOREHEAD APT*  CLOUDY    72  70  94 CALM      29.99R
ASHLAND*       CLOUDY    72  70  94 SW3       29.92S
$$

KYZ035-036-041-042-044-050-067-078-099-291100
...CENTRAL KENTUCKY...

CITY           SKY/WX    TMP DP  RH WIND       PRES   REMARKS
MT STERLING*   DRIZZLE   70  70 100 SW3       29.97F
FLEMING/MASON* CLOUDY    70  70  99 S6        29.96S FOG
DANVILLE*      CLOUDY    70  70 100 S3        29.96F
LEXINGTON      PTCLDY    71  69  93 CALM      29.95S
FRANKFORT      CLOUDY    73  69  87 CALM      29.93S
LOUISVILLE     PTCLDY    74  69  85 SW5       29.92R
LEBANON*         N/A     72  72 100 S6        29.95S
GLASGOW*       CLOUDY    73  73 100 S3        29.95S
BOWLING GREEN  LGT RAIN  74  71  91 S6        29.94S
$$

KYZ091>093-OHZ055-061-077-WVZ005-015-034-035-042-291100
...SOUTHERN OHIO/WEST VIRGINIA...

CITY           SKY/WX    TMP DP  RH WIND       PRES   REMARKS
COVINGTON      FOG       71  71 100 S3        29.93R VSB 1/8
COLUMBUS       CLEAR     68  67  96 SE3       29.92S FOG
DAYTON         PTCLDY    69  67  93 SW3       29.93S
WILMINGTON     FOG       71  71 100 SW3       29.93R VSB 1/4
HUNTINGTON     CLOUDY    72  70  93 SW5       29.96R FOG
CHARLESTON     LGT RAIN  71  69  93 SW3       29.96R FOG
PINEVILLE*     CLOUDY    69  66  90 MISG      30.05R
BECKLEY        CLOUDY    66  65  96 W5        30.03R
BLUEFIELD      CLOUDY    64  63  96 W7        30.05R
LOGAN CO APT*  CLOUDY    70  68  94 CALM      29.99R
$$

VAZ002-007-008-TNZ017-027-036-066-071-291100
...SOUTHWEST VIRGINIA/EAST TENNESSEE...

CITY           SKY/WX    TMP DP  RH WIND       PRES   REMARKS
WISE*          CLOUDY    66  64  94 W7        30.07S
JONESVILLE*    CLOUDY    70  68  94 SW5       30.04S
ABINGDON*      CLOUDY    70  69  98 W5        30.04R
BRISTOL        CLOUDY    70  68  93 W5        30.02R
MORRISTOWN*    CLOUDY    72  72 100 CALM      30.01R
SEVIERVILLE*   CLOUDY    70  70 100 CALM      30.00S
KNOXVILLE      CLOUDY    74  72  93 SW7       29.99S
OAK RIDGE      CLOUDY    73  71  93 CALM      30.01S
CROSSVILLE     FOG       70  70 100 SW6       30.04S VSB 1
NASHVILLE      CLOUDY    77  73  87 SW3       29.97S
$$

...KEY TO REMARKS...
VSB - VISIBILITY IN MILES
WCI - WIND CHILL INDEX
HX  - HEAT INDEX

$$




USA.gov is the U.S. government's official web portal to all federal, state and local government web resources and services.